Regional Weather Roundup
Issued by NWS Northern Indiana

Home | Current Version | Previous Version | Graphics & Text | Print | Product List | Glossary On
Versions: 1 2 3 4 5 6 7 8 9 10 11 12 13 14 15 16 17 18 19 20 21 22 23 24 25 26 27 28 29 30 31 32 33 34 35 36 37 38 39 40 41 42 43 44 45 46 47 48 49 50
000
ASUS43 KIWX 290610
RWRIWX

KIWX WEATHER ROUNDUP
NATIONAL WEATHER SERVICE NORTHERN INDIANA
200 AM EDT FRI MAY 29 2015

NOTE: "FAIR" INDICATES FEW OR NO CLOUDS BELOW 12,000 FEET WITH NO
SIGNIFICANT WEATHER AND/OR OBSTRUCTIONS TO VISIBILITY.

* THESE STATIONS ARE NOT UNDER NWS QUALITY CONTROL. THEY ALSO MAY NOT
  REPORT WEATHER SUCH AS PRECIPITATION OR FOG.

INZ001>027-290700-
NORTHERN INDIANA

CITY           SKY/WX    TMP DP  RH WIND       PRES   REMARKS
GARY*          PTCLDY    71  59  64 SE6       30.08R
VALPARAISO     PTCLDY    69  58  67 SE5       30.10R
6HR MIN TEMP:  68; 6HR MAX TEMP:  79;

MICHIGAN CITY* PTCLDY    70  55  60 SE3       30.09S
LAPORTE*       PTCLDY    70  59  68 SE5       30.11R
6HR MIN TEMP:  70; 6HR MAX TEMP:  81;

KNOX*          CLEAR     64  59  82 SE5       30.09S
SOUTH BEND     PTCLDY    69  57  65 SE9       30.11R
6HR MIN TEMP:  69; 6HR MAX TEMP:  80;

GOSHEN         PTCLDY    67  57  70 SE9       30.12S
6HR MIN TEMP:  64; 6HR MAX TEMP:  76;

MONTICELLO*    CLEAR     70  63  78 S5        30.09S
6HR MIN TEMP:  69; 6HR MAX TEMP:  80;

LOGANSPORT*    CLEAR     66  57  72 SE7       30.11S
ROCHESTER*     CLEAR     70  61  73 SE3       30.12R
WARSAW*        PTCLDY    66  59  77 CALM      30.13R
ANGOLA*        CLEAR     64  54  68 SE9       30.15S
FORT WAYNE     MOCLDY    63  60  90 CALM      30.14S
6HR MIN TEMP:  63; 6HR MAX TEMP:  78;

HUNTINGTON*    PTCLDY    64  61  89 CALM      30.12S
6HR MIN TEMP:  64; 6HR MAX TEMP:  78;

PERU/GRISSOM   CLEAR     68  63  83 S8        30.10S
6HR MIN TEMP:  68; 6HR MAX TEMP:  80;

MARION*        PTCLDY    67  60  79 S5        30.14R
6HR MIN TEMP:  29; 6HR MAX TEMP:  86;


$$
INZ028>050-290700-
CENTRAL INDIANA

CITY           SKY/WX    TMP DP  RH WIND       PRES   REMARKS
LAFAYETTE      CLEAR     70  62  76 S5        30.10R
6HR MIN TEMP:  68; 6HR MAX TEMP:  80;

KOKOMO*        CLEAR     68  61  77 S7        30.12S
6HR MIN TEMP:  68; 6HR MAX TEMP:  81;

MUNCIE*        PTCLDY    69  63  81 S5        30.14S
6HR MIN TEMP:  69; 6HR MAX TEMP:  81;

INDIANAPOLIS   PTCLDY    69  61  75 S8        30.10S
6HR MIN TEMP:  69; 6HR MAX TEMP:  80;


$$
MIZ043>046-050>051-056>058-064>065-071>073-077>080-290700-
SOUTHWEST LOWER MICHIGAN

CITY           SKY/WX    TMP DP  RH WIND       PRES   REMARKS
BATTLE CREEK   CLEAR     67  52  58 SE8       30.15S
6HR MIN TEMP:  67; 6HR MAX TEMP:  78;

BENTON HARBOR  PTCLDY    66  56  70 SE8       30.10R
6HR MIN TEMP:  66; 6HR MAX TEMP:  78;

COLDWATER*     CLEAR     64  53  68 SE7       30.15R
6HR MIN TEMP:  64; 6HR MAX TEMP:  74;

HILLSDALE*     PTCLDY    65  54  68 E9        30.17F
6HR MIN TEMP:  64; 6HR MAX TEMP:  76;

HOLLAND        PTCLDY    67  55  65 SE8       30.12S
6HR MIN TEMP:  66; 6HR MAX TEMP:  77;

GRAND RAPIDS   PTCLDY    65  55  70 SE7       30.13F
6HR MIN TEMP:  65; 6HR MAX TEMP:  77;

KALAMAZOO      PTCLDY    67  53  61 SE5       30.14R
6HR MIN TEMP:  66; 6HR MAX TEMP:  78;

STURGIS*       CLEAR     64  55  72 SE8       30.13S
THREE RIVERS*  FAIR      66  54  64 SE6       30.13S

$$
OHZ001>008-015>018-024>025-290700-
NORTHWEST OHIO

CITY           SKY/WX    TMP DP  RH WIND       PRES   REMARKS
WAUSEON*       FAIR      64  57  77 E8        30.16F
DEFIANCE       CLEAR     65  57  75 E7        30.14F
6HR MIN TEMP:  65; 6HR MAX TEMP:  78;

FINDLAY        PTCLDY    66  60  81 SE6       30.15F
6HR MIN TEMP:  66; 6HR MAX TEMP:  79;

TOLEDO EXPRESS CLOUDY    65  54  67 E5        30.16S
6HR MIN TEMP:  64; 6HR MAX TEMP:  72;

TOLEDO METCALF MOCLDY    62  54  74 E5        30.17F
6HR MIN TEMP:  61; 6HR MAX TEMP:  70;

LIMA           PTCLDY    70  61  73 SE9       30.15F
6HR MIN TEMP:  70; 6HR MAX TEMP:  77;


$$
AND FOR LAKE MICHIGAN COASTAL AND OPEN LAKE BUOY OBSERVATIONS

STATION/POSITION TEMP    WIND        PRES    VSBY  WAVE
                 AIR SEA DIR/SP/G                  HT/PER
                 (F)     (DEG/KT/KT) (MB)    (MI)  (FT/S)
MICHIGAN CITY     72     120/  9/ 12   N/A
BURNS HARBOR      73     140/  9/ 16 1019.0R
SAINT JOSEPH      69     180/  1/  7 1019.3F
SOUTH LAKE BUOY   48 38  120/  8/ 10 1019.0F         0
4 MI NW BRIDGMAN  67 57  160/ 12/ 12   N/A           1
MICHIGAN CITY     65 55  160/  8/ 10   N/A           1

$$
&&



USA.gov is the U.S. government's official web portal to all federal, state and local government web resources and services.